| time (UTC) | temp F | wind direction | speed MPH | gust MPH | rain 1hr in | rain 24hr in | rain mn in | humidity % | barometer mb |
| 20260509230552 | 51 | 206 | 3.0 | 8.0 | 0.00 | 0.11 | 0.11 | 84 | 1006.6 |
| 20260509230053 | 51 | 207 | 2.0 | 10.0 | 0.00 | 0.11 | 0.11 | 84 | 1006.6 |
| 20260509225550 | 51 | 179 | 4.0 | 11.0 | 0.00 | 0.11 | 0.11 | 84 | 1006.5 |
| 20260509225049 | 51 | 205 | 2.0 | 11.0 | 0.00 | 0.11 | 0.11 | 84 | 1006.5 |
| 20260509224550 | 51 | 188 | 6.0 | 10.0 | 0.00 | 0.11 | 0.11 | 84 | 1006.4 |
| 20260509224050 | 51 | 174 | 2.0 | 10.0 | 0.00 | 0.11 | 0.11 | 84 | 1006.4 |
| 20260509223550 | 51 | 190 | 4.0 | 10.0 | 0.00 | 0.11 | 0.11 | 84 | 1006.3 |
| 20260509223053 | 51 | 225 | 5.0 | 11.0 | 0.00 | 0.11 | 0.11 | 84 | 1006.3 |
| 20260509222550 | 51 | 211 | 5.0 | 11.0 | 0.00 | 0.11 | 0.11 | 84 | 1006.3 |
| 20260509222049 | 51 | 209 | 2.0 | 14.0 | 0.00 | 0.11 | 0.11 | 84 | 1006.5 |
| 20260509221549 | 51 | 182 | 5.0 | 14.0 | 0.00 | 0.11 | 0.11 | 84 | 1006.4 |
| 20260509221048 | 51 | 189 | 4.0 | 16.0 | 0.00 | 0.11 | 0.11 | 84 | 1006.4 |
| 20260509220547 | 51 | 186 | 7.0 | 16.0 | 0.00 | 0.11 | 0.11 | 84 | 1006.4 |
| 20260509220050 | 51 | 194 | 4.0 | 11.0 | 0.00 | 0.11 | 0.11 | 84 | 1006.4 |
| 20260509215546 | 51 | 232 | 4.0 | 10.0 | 0.00 | 0.11 | 0.11 | 84 | 1006.5 |
| 20260509215047 | 51 | 182 | 7.0 | 14.0 | 0.00 | 0.11 | 0.11 | 84 | 1006.4 |
| 20260509214547 | 51 | 183 | 5.0 | 11.0 | 0.00 | 0.11 | 0.11 | 84 | 1006.5 |
| 20260509214046 | 51 | 188 | 4.0 | 12.0 | 0.00 | 0.11 | 0.11 | 84 | 1006.5 |
| 20260509213546 | 51 | 180 | 3.0 | 12.0 | 0.00 | 0.11 | 0.11 | 84 | 1006.5 |
| 20260509213102 | 51 | 222 | 6.0 | 10.0 | 0.00 | 0.11 | 0.11 | 84 | 1006.4 |
| 20260509212544 | 51 | 191 | 4.0 | 10.0 | 0.00 | 0.11 | 0.11 | 84 | 1006.5 |
| 20260509212042 | 51 | 150 | 4.0 | 10.0 | 0.00 | 0.11 | 0.11 | 85 | 1006.6 |
| 20260509211542 | 51 | 213 | 3.0 | 10.0 | 0.00 | 0.11 | 0.11 | 85 | 1006.6 |
| 20260509211042 | 51 | 194 | 3.0 | 13.0 | 0.00 | 0.11 | 0.11 | 85 | 1006.6 |
| 20260509210543 | 51 | 209 | 6.0 | 13.0 | 0.00 | 0.11 | 0.11 | 85 | 1006.7 |
| 20260509210046 | 51 | 214 | 4.0 | 11.0 | 0.00 | 0.11 | 0.11 | 85 | 1006.8 |
| 20260509205544 | 51 | 142 | 5.0 | 11.0 | 0.00 | 0.11 | 0.11 | 85 | 1006.8 |
| 20260509205040 | 51 | 205 | 4.0 | 8.0 | 0.00 | 0.11 | 0.11 | 86 | 1006.8 |
| 20260509204540 | 51 | 224 | 2.0 | 13.0 | 0.00 | 0.11 | 0.11 | 86 | 1007.0 |
| 20260509204038 | 51 | 175 | 6.0 | 13.0 | 0.00 | 0.11 | 0.11 | 86 | 1007.0 |
| 20260509203540 | 51 | 196 | 8.0 | 13.0 | 0.00 | 0.11 | 0.11 | 86 | 1007.0 |
| 20260509203037 | 51 | 193 | 2.0 | 13.0 | 0.00 | 0.11 | 0.11 | 87 | 1007.0 |
| 20260509202541 | 50 | 188 | 7.0 | 13.0 | 0.00 | 0.11 | 0.11 | 87 | 1007.0 |
| 20260509202036 | 51 | 222 | 6.0 | 13.0 | 0.00 | 0.11 | 0.11 | 88 | 1007.1 |
| 20260509201539 | 50 | 172 | 6.0 | 13.0 | 0.00 | 0.11 | 0.11 | 88 | 1007.1 |
| 20260509201034 | 50 | 194 | 5.0 | 12.0 | 0.00 | 0.11 | 0.11 | 88 | 1007.1 |
| 20260509200539 | 50 | 184 | 7.0 | 12.0 | 0.00 | 0.11 | 0.11 | 88 | 1007.1 |
| 20260509200034 | 50 | 193 | 7.0 | 15.0 | 0.00 | 0.11 | 0.11 | 88 | 1007.1 |
| 20260509195531 | 50 | 182 | 5.0 | 15.0 | 0.00 | 0.12 | 0.11 | 88 | 1007.1 |
| 20260509195029 | 50 | 161 | 4.0 | 17.0 | 0.00 | 0.12 | 0.11 | 88 | 1007.2 |
| 20260509194540 | 50 | 187 | 7.0 | 17.0 | 0.00 | 0.12 | 0.11 | 88 | 1007.4 |
| 20260509194026 | 50 | 184 | 6.0 | 17.0 | 0.00 | 0.12 | 0.11 | 88 | 1007.3 |
| 20260509193527 | 50 | 169 | 7.0 | 17.0 | 0.00 | 0.12 | 0.11 | 88 | 1007.5 |
| 20260509193025 | 50 | 200 | 7.0 | 15.0 | 0.00 | 0.12 | 0.11 | 88 | 1007.5 |
| 20260509192522 | 50 | 209 | 8.0 | 15.0 | 0.00 | 0.12 | 0.11 | 88 | 1007.5 |
| 20260509192020 | 50 | 235 | 4.0 | 12.0 | 0.00 | 0.12 | 0.11 | 88 | 1007.6 |
| 20260509191520 | 50 | 205 | 5.0 | 10.0 | 0.00 | 0.12 | 0.11 | 88 | 1007.7 |
| 20260509191023 | 50 | 147 | 5.0 | 10.0 | 0.00 | 0.12 | 0.11 | 87 | 1007.8 |
| 20260509190519 | 50 | 202 | 6.0 | 10.0 | 0.00 | 0.12 | 0.11 | 87 | 1007.7 |
| 20260509190019 | 50 | 187 | 6.0 | 10.0 | 0.00 | 0.12 | 0.11 | 86 | 1007.8 |
| 20260509185516 | 50 | 197 | 7.0 | 10.0 | 0.00 | 0.12 | 0.11 | 86 | 1007.8 |
| 20260509185015 | 50 | 192 | 6.0 | 10.0 | 0.00 | 0.12 | 0.11 | 86 | 1007.8 |
| 20260509184514 | 50 | 194 | 5.0 | 11.0 | 0.00 | 0.12 | 0.11 | 86 | 1007.8 |
| 20260509184013 | 50 | 191 | 6.0 | 11.0 | 0.00 | 0.12 | 0.11 | 85 | 1007.8 |
| 20260509183511 | 50 | 180 | 6.0 | 11.0 | 0.00 | 0.12 | 0.11 | 85 | 1007.9 |
| 20260509183013 | 50 | 150 | 3.0 | 10.0 | 0.00 | 0.12 | 0.11 | 85 | 1007.9 |
| 20260509182508 | 50 | 210 | 2.0 | 10.0 | 0.00 | 0.12 | 0.11 | 85 | 1007.8 |
| 20260509182006 | 50 | 196 | 3.0 | 10.0 | 0.00 | 0.12 | 0.11 | 85 | 1007.7 |
| 20260509181505 | 50 | 188 | 4.0 | 14.0 | 0.00 | 0.12 | 0.11 | 85 | 1007.8 |
| 20260509181005 | 50 | 210 | 5.0 | 14.0 | 0.00 | 0.12 | 0.11 | 86 | 1007.8 |
| 20260509180504 | 50 | 196 | 2.0 | 6.0 | 0.00 | 0.12 | 0.11 | 86 | 1007.8 |
| 20260509180003 | 50 | 207 | 2.0 | 11.0 | 0.00 | 0.12 | 0.11 | 86 | 1007.8 |
| 20260509175502 | 50 | 182 | 6.0 | 11.0 | 0.00 | 0.12 | 0.11 | 86 | 1007.8 |
| 20260509175101 | 50 | 213 | 5.0 | 11.0 | 0.00 | 0.12 | 0.11 | 87 | 1007.7 |
| 20260509174600 | 50 | 208 | 2.0 | 7.0 | 0.00 | 0.12 | 0.11 | 87 | 1007.8 |
| 20260509174058 | 49 | 218 | 2.0 | 11.0 | 0.00 | 0.12 | 0.11 | 87 | 1007.8 |
| 20260509173600 | 49 | 155 | 2.0 | 11.0 | 0.00 | 0.12 | 0.11 | 87 | 1007.7 |
| 20260509173107 | 49 | 208 | 3.0 | 9.0 | 0.00 | 0.12 | 0.11 | 88 | 1007.7 |
| 20260509172557 | 49 | 202 | 4.0 | 9.0 | 0.00 | 0.12 | 0.11 | 88 | 1007.7 |
| 20260509172055 | 49 | 203 | 3.0 | 5.0 | 0.00 | 0.12 | 0.11 | 88 | 1007.8 |
| 20260509171557 | 49 | 197 | 2.0 | 7.0 | 0.00 | 0.12 | 0.11 | 88 | 1007.8 |
| 20260509171053 | 49 | 190 | 4.0 | 7.0 | 0.00 | 0.12 | 0.11 | 88 | 1007.9 |
| 20260509170552 | 49 | 192 | 3.0 | 9.0 | 0.00 | 0.12 | 0.11 | 88 | 1007.9 |
| 20260509170050 | 49 | 186 | 4.0 | 9.0 | 0.00 | 0.12 | 0.11 | 88 | 1008.0 |
| 20260509165549 | 49 | 192 | 3.0 | 8.0 | 0.00 | 0.13 | 0.11 | 88 | 1008.0 |
| 20260509165048 | 48 | 158 | 3.0 | 7.0 | 0.00 | 0.13 | 0.11 | 88 | 1008.0 |
| 20260509164547 | 48 | 178 | 2.0 | 7.0 | 0.01 | 0.13 | 0.11 | 88 | 1008.0 |
| 20260509164047 | 48 | 187 | 3.0 | 8.0 | 0.01 | 0.13 | 0.11 | 88 | 1008.1 |
| 20260509163548 | 48 | 161 | 3.0 | 8.0 | 0.01 | 0.13 | 0.11 | 88 | 1008.2 |
| 20260509163046 | 48 | 189 | 2.0 | 9.0 | 0.01 | 0.13 | 0.11 | 89 | 1008.2 |
| 20260509162545 | 48 | 155 | 4.0 | 9.0 | 0.01 | 0.13 | 0.11 | 88 | 1008.4 |
| 20260509162046 | 48 | 147 | 3.0 | 9.0 | 0.01 | 0.13 | 0.11 | 89 | 1008.4 |
| 20260509161555 | 48 | 146 | 6.0 | 9.0 | 0.01 | 0.13 | 0.11 | 89 | 1008.4 |
| 20260509161043 | 48 | 170 | 4.0 | 8.0 | 0.01 | 0.13 | 0.11 | 89 | 1008.5 |
| 20260509160544 | 48 | 113 | 3.0 | 9.0 | 0.01 | 0.13 | 0.11 | 89 | 1008.6 |
| 20260509160042 | 49 | 194 | 2.0 | 9.0 | 0.01 | 0.13 | 0.11 | 90 | 1008.6 |
| 20260509155540 | 48 | 167 | 3.0 | 9.0 | 0.01 | 0.13 | 0.11 | 90 | 1008.7 |
| 20260509155040 | 48 | 136 | 4.0 | 7.0 | 0.01 | 0.13 | 0.11 | 90 | 1008.8 |
| 20260509154546 | 48 | 169 | 1.0 | 8.0 | 0.00 | 0.12 | 0.10 | 90 | 1008.8 |
| 20260509154038 | 48 | 191 | 3.0 | 8.0 | 0.01 | 0.12 | 0.10 | 91 | 1009.0 |
| 20260509153539 | 48 | 136 | 4.0 | 8.0 | 0.01 | 0.12 | 0.10 | 91 | 1008.8 |
| 20260509153052 | 48 | 130 | 4.0 | 7.0 | 0.01 | 0.12 | 0.10 | 91 | 1009.0 |
| 20260509152535 | 48 | 139 | 2.0 | 7.0 | 0.02 | 0.12 | 0.10 | 91 | 1009.0 |
| 20260509152035 | 47 | 128 | 4.0 | 8.0 | 0.02 | 0.12 | 0.10 | 91 | 1009.1 |
| 20260509151534 | 47 | 130 | 2.0 | 8.0 | 0.02 | 0.12 | 0.10 | 91 | 1009.0 |
| 20260509151033 | 47 | 126 | 3.0 | 8.0 | 0.03 | 0.12 | 0.10 | 91 | 1009.0 |
| 20260509150532 | 47 | 141 | 2.0 | 8.0 | 0.03 | 0.12 | 0.10 | 91 | 1009.1 |
| 20260509150032 | 47 | 133 | 3.0 | 8.0 | 0.04 | 0.12 | 0.10 | 91 | 1009.1 |
| 20260509145531 | 46 | 146 | 2.0 | 8.0 | 0.05 | 0.13 | 0.10 | 91 | 1009.1 |
| 20260509145030 | 46 | 166 | 2.0 | 7.0 | 0.05 | 0.13 | 0.10 | 91 | 1009.1 |
| 20260509144529 | 46 | 146 | 3.0 | 7.0 | 0.05 | 0.13 | 0.10 | 91 | 1009.1 |
| 20260509144028 | 46 | 156 | 2.0 | 8.0 | 0.04 | 0.12 | 0.09 | 91 | 1009.2 |
| 20260509143527 | 46 | 142 | 3.0 | 9.0 | 0.04 | 0.12 | 0.09 | 91 | 1009.2 |
| 20260509143028 | 46 | 130 | 5.0 | 9.0 | 0.04 | 0.12 | 0.09 | 91 | 1009.2 |
| 20260509142525 | 46 | 139 | 2.0 | 7.0 | 0.04 | 0.11 | 0.08 | 91 | 1009.3 |
| 20260509142024 | 45 | 147 | 3.0 | 7.0 | 0.04 | 0.11 | 0.08 | 90 | 1009.3 |
| 20260509141533 | 45 | 115 | 3.0 | 8.0 | 0.04 | 0.11 | 0.08 | 91 | 1009.3 |
| 20260509141024 | 45 | 135 | 2.0 | 6.0 | 0.04 | 0.10 | 0.07 | 90 | 1009.2 |
| 20260509140523 | 45 | 152 | 1.0 | 7.0 | 0.04 | 0.10 | 0.07 | 90 | 1009.2 |
| 20260509140022 | 45 | 139 | 4.0 | 7.0 | 0.03 | 0.09 | 0.06 | 90 | 1009.2 |
| 20260509135522 | 45 | 111 | 2.0 | 5.0 | 0.02 | 0.08 | 0.05 | 90 | 1009.2 |
| 20260509135021 | 45 | 143 | 2.0 | 7.0 | 0.03 | 0.08 | 0.05 | 90 | 1009.2 |
| 20260509134520 | 45 | 156 | 3.0 | 7.0 | 0.03 | 0.08 | 0.05 | 90 | 1009.2 |
| 20260509134023 | 45 | 155 | 2.0 | 6.0 | 0.03 | 0.08 | 0.05 | 90 | 1009.2 |
| 20260509133520 | 45 | 128 | 2.0 | 6.0 | 0.03 | 0.08 | 0.05 | 90 | 1009.4 |
| 20260509133022 | 45 | 124 | 1.0 | 5.0 | 0.04 | 0.08 | 0.05 | 90 | 1009.3 |
| 20260509132521 | 45 | 140 | 0.0 | 3.0 | 0.03 | 0.07 | 0.04 | 90 | 1009.3 |
| 20260509132018 | 44 | 148 | 1.0 | 3.0 | 0.03 | 0.07 | 0.04 | 90 | 1009.3 |
| 20260509131521 | 44 | 94 | 1.0 | 3.0 | 0.03 | 0.07 | 0.04 | 90 | 1009.3 |
| 20260509131016 | 44 | 94 | 1.0 | 3.0 | 0.02 | 0.06 | 0.03 | 89 | 1009.3 |
| 20260509130516 | 44 | 96 | 1.0 | 3.0 | 0.02 | 0.06 | 0.03 | 89 | 1009.4 |
| 20260509130015 | 44 | 88 | 1.0 | 4.0 | 0.02 | 0.06 | 0.03 | 89 | 1009.4 |
| 20260509125516 | 44 | 88 | 2.0 | 4.0 | 0.02 | 0.06 | 0.03 | 88 | 1009.6 |
| 20260509125016 | 44 | 98 | 1.0 | 4.0 | 0.02 | 0.05 | 0.02 | 89 | 1009.6 |
| 20260509124513 | 44 | 144 | 2.0 | 4.0 | 0.02 | 0.05 | 0.02 | 88 | 1009.6 |
| 20260509124014 | 44 | 109 | 1.0 | 5.0 | 0.02 | 0.05 | 0.02 | 88 | 1009.7 |
| 20260509123513 | 44 | 128 | 0.0 | 5.0 | 0.02 | 0.05 | 0.02 | 88 | 1009.8 |
| 20260509123012 | 44 | 128 | 1.0 | 5.0 | 0.01 | 0.04 | 0.01 | 88 | 1009.8 |
| 20260509122508 | 43 | 138 | 3.0 | 5.0 | 0.01 | 0.04 | 0.01 | 88 | 1009.9 |
| 20260509122010 | 43 | 136 | 2.0 | 7.0 | 0.01 | 0.04 | 0.01 | 87 | 1009.9 |
| 20260509121508 | 43 | 153 | 2.0 | 7.0 | 0.01 | 0.04 | 0.01 | 87 | 1010.0 |
| 20260509121010 | 43 | 149 | 2.0 | 8.0 | 0.01 | 0.04 | 0.01 | 87 | 1010.1 |
| 20260509120506 | 43 | 142 | 3.0 | 9.0 | 0.01 | 0.04 | 0.01 | 87 | 1010.1 |
| 20260509120007 | 43 | 133 | 4.0 | 8.0 | 0.01 | 0.04 | 0.01 | 86 | 1010.0 |
| 20260509115506 | 43 | 143 | 4.0 | 7.0 | 0.01 | 0.04 | 0.01 | 86 | 1010.1 |
| 20260509115010 | 42 | 134 | 2.0 | 6.0 | 0.00 | 0.03 | 0.00 | 85 | 1010.1 |
| 20260509114506 | 42 | 98 | 1.0 | 4.0 | 0.00 | 0.03 | 0.00 | 84 | 1010.1 |
| 20260509114006 | 42 | 99 | 2.0 | 4.0 | 0.00 | 0.03 | 0.00 | 83 | 1010.0 |
| 20260509113506 | 43 | 103 | 2.0 | 8.0 | 0.00 | 0.03 | 0.00 | 84 | 1010.1 |
| 20260509113005 | 43 | 139 | 3.0 | 8.0 | 0.00 | 0.03 | 0.00 | 84 | 1010.0 |
| 20260509112505 | 43 | 146 | 2.0 | 8.0 | 0.00 | 0.03 | 0.00 | 84 | 1010.0 |
| 20260509112006 | 43 | 132 | 3.0 | 5.0 | 0.00 | 0.03 | 0.00 | 84 | 1010.1 |
| 20260509111504 | 43 | 117 | 3.0 | 7.0 | 0.00 | 0.03 | 0.00 | 84 | 1010.0 |
| 20260509111003 | 43 | 140 | 3.0 | 7.0 | 0.00 | 0.03 | 0.00 | 84 | 1010.1 |
| 20260509110506 | 43 | 138 | 3.0 | 8.0 | 0.00 | 0.03 | 0.00 | 84 | 1010.1 |
| 20260509110004 | 43 | 135 | 2.0 | 9.0 | 0.00 | 0.03 | 0.00 | 84 | 1010.0 |
| 20260509105502 | 42 | 139 | 4.0 | 9.0 | 0.00 | 0.03 | 0.00 | 84 | 1009.8 |
| 20260509105002 | 42 | 142 | 4.0 | 8.0 | 0.00 | 0.03 | 0.00 | 83 | 1009.8 |
| 20260509104503 | 42 | 146 | 4.0 | 8.0 | 0.00 | 0.03 | 0.00 | 83 | 1009.8 |
| 20260509104001 | 42 | 133 | 4.0 | 8.0 | 0.00 | 0.03 | 0.00 | 83 | 1009.7 |
| 20260509103501 | 42 | 150 | 4.0 | 8.0 | 0.00 | 0.03 | 0.00 | 82 | 1009.8 |
| 20260509103108 | 42 | 146 | 3.0 | 8.0 | 0.00 | 0.03 | 0.00 | 82 | 1009.7 |
| 20260509102558 | 41 | 135 | 2.0 | 7.0 | 0.00 | 0.03 | 0.00 | 81 | 1009.7 |
| 20260509102057 | 40 | 150 | 2.0 | 5.0 | 0.00 | 0.03 | 0.00 | 80 | 1009.7 |
| 20260509101615 | 40 | 101 | 0.0 | 0.0 | 0.00 | 0.03 | 0.00 | 77 | 1009.6 |
| 20260509101055 | 39 | 81 | 0.0 | 0.0 | 0.00 | 0.03 | 0.00 | 76 | 1009.5 |
| 20260509100556 | 39 | 81 | 0.0 | 2.0 | 0.00 | 0.03 | 0.00 | 76 | 1009.6 |
| 20260509100059 | 39 | 85 | 0.0 | 3.0 | 0.00 | 0.03 | 0.00 | 76 | 1009.4 |
| 20260509095554 | 39 | 92 | 0.0 | 3.0 | 0.00 | 0.04 | 0.00 | 75 | 1009.5 |
| 20260509095053 | 39 | 92 | 0.0 | 5.0 | 0.00 | 0.04 | 0.00 | 76 | 1009.7 |
| 20260509094559 | 39 | 90 | 0.0 | 7.0 | 0.00 | 0.04 | 0.00 | 77 | 1009.7 |
| 20260509094052 | 39 | 115 | 3.0 | 7.0 | 0.00 | 0.04 | 0.00 | 76 | 1009.4 |
| 20260509093552 | 39 | 123 | 3.0 | 6.0 | 0.00 | 0.04 | 0.00 | 78 | 1009.7 |
| 20260509093051 | 38 | 120 | 2.0 | 3.0 | 0.00 | 0.04 | 0.00 | 80 | 1009.8 |
| 20260509092550 | 38 | 123 | 1.0 | 3.0 | 0.00 | 0.04 | 0.00 | 80 | 1009.8 |
| 20260509092052 | 38 | 123 | 1.0 | 3.0 | 0.00 | 0.04 | 0.00 | 80 | 1010.0 |
| 20260509091554 | 38 | 123 | 0.0 | 3.0 | 0.00 | 0.04 | 0.00 | 80 | 1009.9 |
| 20260509091049 | 38 | 123 | 1.0 | 3.0 | 0.00 | 0.04 | 0.00 | 80 | 1009.9 |
| 20260509090549 | 38 | 123 | 2.0 | 3.0 | 0.00 | 0.04 | 0.00 | 81 | 1010.0 |
| 20260509090055 | 37 | 124 | 1.0 | 3.0 | 0.00 | 0.04 | 0.00 | 82 | 1010.1 |
| 20260509085548 | 37 | 126 | 1.0 | 4.0 | 0.00 | 0.06 | 0.00 | 83 | 1010.1 |
| 20260509085048 | 37 | 128 | 2.0 | 6.0 | 0.00 | 0.06 | 0.00 | 84 | 1010.0 |
| 20260509084558 | 37 | 87 | 2.0 | 6.0 | 0.00 | 0.06 | 0.00 | 84 | 1010.0 |
| 20260509084048 | 37 | 103 | 2.0 | 7.0 | 0.00 | 0.06 | 0.00 | 84 | 1010.1 |
| 20260509083547 | 37 | 125 | 3.0 | 7.0 | 0.00 | 0.06 | 0.00 | 84 | 1010.1 |
| 20260509083059 | 36 | 117 | 2.0 | 6.0 | 0.00 | 0.06 | 0.00 | 84 | 1010.2 |
| 20260509082546 | 36 | 123 | 3.0 | 7.0 | 0.00 | 0.06 | 0.00 | 84 | 1010.3 |
| 20260509082050 | 36 | 105 | 3.0 | 6.0 | 0.00 | 0.06 | 0.00 | 84 | 1010.4 |
| 20260509081546 | 36 | 128 | 2.0 | 6.0 | 0.00 | 0.06 | 0.00 | 84 | 1010.4 |
| 20260509081045 | 36 | 111 | 2.0 | 6.0 | 0.00 | 0.06 | 0.00 | 84 | 1010.4 |
| 20260509080548 | 36 | 128 | 2.0 | 4.0 | 0.00 | 0.06 | 0.00 | 84 | 1010.3 |
| 20260509080049 | 36 | 132 | 2.0 | 4.0 | 0.00 | 0.06 | 0.00 | 84 | 1010.4 |
| 20260509075544 | 36 | 115 | 2.0 | 3.0 | 0.00 | 0.06 | 0.00 | 84 | 1010.3 |
| 20260509075044 | 35 | 115 | 2.0 | 3.0 | 0.00 | 0.06 | 0.00 | 84 | 1010.3 |
| 20260509074602 | 35 | 115 | 1.0 | 3.0 | 0.00 | 0.06 | 0.00 | 84 | 1010.3 |
| 20260509074043 | 35 | 109 | 2.0 | 4.0 | 0.00 | 0.06 | 0.00 | 84 | 1010.2 |
| 20260509073546 | 35 | 109 | 2.0 | 6.0 | 0.00 | 0.06 | 0.00 | 84 | 1010.2 |
| 20260509073100 | 35 | 107 | 3.0 | 6.0 | 0.00 | 0.06 | 0.00 | 85 | 1010.1 |
| 20260509072542 | 35 | 101 | 3.0 | 4.0 | 0.00 | 0.06 | 0.00 | 86 | 1010.1 |
| 20260509072040 | 34 | 101 | 3.0 | 6.0 | 0.00 | 0.06 | 0.00 | 86 | 1010.1 |
| 20260509071548 | 34 | 101 | 3.0 | 4.0 | 0.00 | 0.06 | 0.00 | 86 | 1010.1 |
| 20260509071041 | 34 | 109 | 2.0 | 4.0 | 0.00 | 0.06 | 0.00 | 85 | 1010.3 |
| 20260509070538 | 34 | 107 | 2.0 | 6.0 | 0.00 | 0.06 | 0.00 | 85 | 1010.2 |
| 20260509070040 | 35 | 107 | 3.0 | 6.0 | 0.00 | 0.06 | 0.00 | 85 | 1010.2 |
| 20260509065535 | 34 | 107 | 3.0 | 4.0 | 0.00 | 0.06 | 0.00 | 85 | 1010.3 |
| 20260509065035 | 34 | 105 | 2.0 | 4.0 | 0.00 | 0.06 | 0.00 | 85 | 1010.4 |
| 20260509064537 | 34 | 106 | 3.0 | 4.0 | 0.00 | 0.06 | 0.00 | 85 | 1010.4 |
| 20260509064034 | 34 | 104 | 3.0 | 4.0 | 0.00 | 0.06 | 0.00 | 85 | 1010.3 |
| 20260509063532 | 35 | 103 | 3.0 | 4.0 | 0.00 | 0.06 | 0.00 | 84 | 1010.5 |
| 20260509063046 | 35 | 106 | 2.0 | 4.0 | 0.00 | 0.06 | 0.00 | 84 | 1010.6 |
| 20260509062531 | 35 | 105 | 3.0 | 4.0 | 0.00 | 0.06 | 0.00 | 84 | 1010.8 |
| 20260509062030 | 35 | 109 | 3.0 | 4.0 | 0.00 | 0.06 | 0.00 | 84 | 1010.8 |
| 20260509061529 | 35 | 109 | 2.0 | 3.0 | 0.00 | 0.06 | 0.00 | 83 | 1010.9 |
| 20260509061031 | 35 | 109 | 2.0 | 4.0 | 0.00 | 0.06 | 0.00 | 83 | 1010.9 |
| 20260509060530 | 35 | 110 | 2.0 | 4.0 | 0.00 | 0.06 | 0.00 | 82 | 1010.9 |
| 20260509060029 | 35 | 110 | 2.0 | 4.0 | 0.00 | 0.06 | 0.00 | 82 | 1010.9 |
| 20260509055527 | 36 | 109 | 3.0 | 4.0 | 0.00 | 0.06 | 0.00 | 82 | 1011.0 |
| 20260509055027 | 36 | 109 | 2.0 | 4.0 | 0.00 | 0.06 | 0.00 | 81 | 1011.0 |
| 20260509054523 | 36 | 108 | 2.0 | 4.0 | 0.00 | 0.06 | 0.00 | 81 | 1011.1 |
| 20260509054024 | 36 | 108 | 2.0 | 4.0 | 0.00 | 0.06 | 0.00 | 81 | 1011.0 |
| 20260509053522 | 36 | 114 | 2.0 | 4.0 | 0.00 | 0.06 | 0.00 | 80 | 1011.1 |
| 20260509053030 | 36 | 112 | 2.0 | 3.0 | 0.00 | 0.06 | 0.00 | 80 | 1011.2 |
| 20260509052518 | 37 | 112 | 2.0 | 3.0 | 0.00 | 0.06 | 0.00 | 80 | 1011.3 |
| 20260509052018 | 37 | 111 | 2.0 | 4.0 | 0.00 | 0.06 | 0.00 | 79 | 1011.3 |
| 20260509051519 | 37 | 111 | 2.0 | 4.0 | 0.00 | 0.06 | 0.00 | 79 | 1011.3 |
| 20260509051018 | 37 | 111 | 2.0 | 4.0 | 0.00 | 0.06 | 0.00 | 79 | 1011.3 |
| 20260509050517 | 37 | 111 | 2.0 | 4.0 | 0.00 | 0.06 | 0.00 | 77 | 1011.4 |
| 20260509050016 | 38 | 109 | 2.0 | 4.0 | 0.00 | 0.06 | 0.00 | 76 | 1011.4 |
| 20260509045520 | 38 | 105 | 2.0 | 4.0 | 0.00 | 0.06 | 0.00 | 75 | 1011.4 |
| 20260509045016 | 38 | 105 | 3.0 | 4.0 | 0.00 | 0.06 | 0.00 | 74 | 1011.5 |
| 20260509044516 | 38 | 105 | 2.0 | 4.0 | 0.00 | 0.06 | 0.00 | 73 | 1011.5 |
| 20260509044020 | 39 | 106 | 3.0 | 4.0 | 0.00 | 0.06 | 0.00 | 72 | 1011.5 |
| 20260509043516 | 39 | 103 | 2.0 | 4.0 | 0.00 | 0.06 | 0.00 | 72 | 1011.5 |
| 20260509043035 | 39 | 113 | 2.0 | 3.0 | 0.00 | 0.06 | 0.00 | 71 | 1011.6 |
| 20260509042515 | 40 | 124 | 2.0 | 3.0 | 0.00 | 0.06 | 0.00 | 68 | 1011.6 |
| 20260509042013 | 40 | 161 | 0.0 | 3.0 | 0.00 | 0.06 | 0.00 | 69 | 1011.5 |
| 20260509041515 | 39 | 141 | 1.0 | 3.0 | 0.00 | 0.06 | 0.00 | 71 | 1011.5 |
| 20260509041011 | 38 | 113 | 1.0 | 3.0 | 0.00 | 0.06 | 0.00 | 76 | 1011.5 |
| 20260509040508 | 37 | 112 | 1.0 | 4.0 | 0.00 | 0.06 | 0.00 | 78 | 1011.5 |
| 20260509040009 | 37 | 112 | 1.0 | 4.0 | 0.00 | 0.06 | 0.00 | 79 | 1011.4 |
| 20260509035507 | 37 | 113 | 3.0 | 4.0 | 0.00 | 0.06 | 0.06 | 78 | 1011.4 |
| 20260509035007 | 37 | 109 | 1.0 | 3.0 | 0.00 | 0.06 | 0.06 | 78 | 1011.3 |
| 20260509034507 | 37 | 109 | 0.0 | 3.0 | 0.00 | 0.06 | 0.06 | 78 | 1011.3 |
| 20260509034007 | 37 | 109 | 2.0 | 3.0 | 0.00 | 0.06 | 0.06 | 78 | 1011.3 |
| 20260509033510 | 37 | 102 | 2.0 | 3.0 | 0.00 | 0.06 | 0.06 | 78 | 1011.3 |
| 20260509033007 | 37 | 80 | 2.0 | 3.0 | 0.00 | 0.06 | 0.06 | 78 | 1011.2 |
| 20260509032507 | 37 | 78 | 1.0 | 3.0 | 0.00 | 0.06 | 0.06 | 77 | 1011.3 |
| 20260509032006 | 37 | 78 | 2.0 | 3.0 | 0.00 | 0.06 | 0.06 | 77 | 1011.4 |
| 20260509031508 | 37 | 61 | 2.0 | 3.0 | 0.00 | 0.06 | 0.06 | 77 | 1011.5 |
| 20260509031007 | 37 | 61 | 1.0 | 3.0 | 0.00 | 0.06 | 0.06 | 76 | 1011.4 |
| 20260509030506 | 37 | 61 | 2.0 | 3.0 | 0.00 | 0.06 | 0.06 | 76 | 1011.4 |
| 20260509030005 | 37 | 59 | 2.0 | 3.0 | 0.00 | 0.06 | 0.06 | 76 | 1011.5 |
| 20260509025505 | 37 | 55 | 2.0 | 3.0 | 0.00 | 0.06 | 0.06 | 76 | 1011.5 |
| 20260509025009 | 37 | 50 | 1.0 | 3.0 | 0.00 | 0.06 | 0.06 | 75 | 1011.6 |
| 20260509024506 | 37 | 286 | 1.0 | 3.0 | 0.00 | 0.06 | 0.06 | 74 | 1011.6 |
| 20260509024005 | 38 | 285 | 0.0 | 2.0 | 0.00 | 0.06 | 0.06 | 73 | 1011.6 |
| 20260509023505 | 38 | 285 | 0.0 | 0.0 | 0.00 | 0.06 | 0.06 | 71 | 1011.7 |
| 20260509023005 | 39 | 285 | 0.0 | 1.0 | 0.00 | 0.06 | 0.06 | 71 | 1011.7 |
| 20260509022504 | 39 | 285 | 0.0 | 1.0 | 0.00 | 0.06 | 0.06 | 70 | 1011.7 |
| 20260509022006 | 39 | 285 | 0.0 | 0.0 | 0.00 | 0.06 | 0.06 | 70 | 1011.6 |
| 20260509021504 | 38 | 285 | 0.0 | 1.0 | 0.00 | 0.06 | 0.06 | 71 | 1011.7 |
| 20260509021004 | 38 | 285 | 0.0 | 1.0 | 0.00 | 0.06 | 0.06 | 71 | 1011.8 |
| 20260509020503 | 38 | 285 | 0.0 | 2.0 | 0.00 | 0.06 | 0.06 | 70 | 1011.7 |
| 20260509020003 | 38 | 301 | 0.0 | 2.0 | 0.00 | 0.06 | 0.06 | 70 | 1011.6 |
| 20260509015503 | 38 | 301 | 0.0 | 2.0 | 0.00 | 0.06 | 0.06 | 71 | 1011.6 |
| 20260509015004 | 38 | 301 | 0.0 | 2.0 | 0.00 | 0.06 | 0.06 | 70 | 1011.4 |
| 20260509014507 | 38 | 301 | 0.0 | 2.0 | 0.00 | 0.06 | 0.06 | 70 | 1011.4 |
| 20260509014102 | 38 | 301 | 0.0 | 3.0 | 0.00 | 0.06 | 0.06 | 70 | 1011.4 |
| 20260509013501 | 38 | 301 | 1.0 | 3.0 | 0.00 | 0.06 | 0.06 | 70 | 1011.2 |
| 20260509013002 | 39 | 299 | 0.0 | 0.0 | 0.00 | 0.06 | 0.06 | 69 | 1011.2 |
| 20260509012502 | 39 | 300 | 0.0 | 0.0 | 0.00 | 0.06 | 0.06 | 68 | 1011.0 |
| 20260509012001 | 39 | 300 | 0.0 | 0.0 | 0.00 | 0.06 | 0.06 | 68 | 1011.1 |
| 20260509011501 | 39 | 300 | 0.0 | 0.0 | 0.00 | 0.06 | 0.06 | 67 | 1011.1 |
| 20260509011002 | 40 | 300 | 0.0 | 0.0 | 0.00 | 0.06 | 0.06 | 66 | 1010.9 |
| 20260509010500 | 40 | 300 | 0.0 | 1.0 | 0.00 | 0.06 | 0.06 | 65 | 1010.9 |
| 20260509005600 | 40 | 300 | 0.0 | 2.0 | 0.00 | 0.06 | 0.06 | 63 | 1010.8 |
| 20260509005104 | 41 | 300 | 0.0 | 1.0 | 0.00 | 0.06 | 0.06 | 60 | 1010.6 |
| 20260509004603 | 41 | 300 | 0.0 | 2.0 | 0.00 | 0.06 | 0.06 | 59 | 1010.4 |
| 20260509004100 | 41 | 300 | 0.0 | 2.0 | 0.00 | 0.06 | 0.06 | 62 | 1010.3 |
| 20260509003600 | 42 | 300 | 1.0 | 2.0 | 0.00 | 0.06 | 0.06 | 64 | 1010.3 |
| 20260509003103 | 42 | 300 | 1.0 | 2.0 | 0.00 | 0.06 | 0.06 | 64 | 1010.3 |
| 20260509002603 | 42 | 300 | 0.0 | 2.0 | 0.00 | 0.06 | 0.06 | 60 | 1010.3 |
| 20260509002100 | 43 | 360 | 1.0 | 2.0 | 0.00 | 0.06 | 0.06 | 58 | 1010.1 |
| 20260509001559 | 43 | 300 | 1.0 | 3.0 | 0.00 | 0.06 | 0.06 | 58 | 1010.0 |
| 20260509001058 | 44 | 300 | 1.0 | 3.0 | 0.00 | 0.06 | 0.06 | 59 | 1010.1 |
| 20260509000558 | 45 | 300 | 0.0 | 0.0 | 0.00 | 0.06 | 0.06 | 58 | 1010.1 |
| 20260508235559 | 46 | 300 | 0.0 | 3.0 | 0.00 | 0.06 | 0.06 | 50 | 1010.0 |
| 20260508235059 | 46 | 300 | 1.0 | 4.0 | 0.00 | 0.06 | 0.06 | 48 | 1010.0 |
| 20260508234604 | 46 | 304 | 1.0 | 4.0 | 0.00 | 0.06 | 0.06 | 48 | 1010.0 |
| 20260508234058 | 46 | 302 | 1.0 | 4.0 | 0.00 | 0.06 | 0.06 | 49 | 1009.9 |
| 20260508233558 | 46 | 293 | 1.0 | 3.0 | 0.00 | 0.06 | 0.06 | 50 | 1009.9 |
| 20260508233108 | 47 | 292 | 1.0 | 3.0 | 0.00 | 0.06 | 0.06 | 49 | 1009.8 |
| 20260508232556 | 47 | 305 | 1.0 | 4.0 | 0.00 | 0.06 | 0.06 | 47 | 1009.8 |
| 20260508232057 | 47 | 307 | 2.0 | 9.0 | 0.00 | 0.06 | 0.06 | 47 | 1009.9 |
| 20260508231558 | 47 | 306 | 5.0 | 9.0 | 0.00 | 0.06 | 0.06 | 48 | 1009.9 |
| 20260508231056 | 47 | 301 | 4.0 | 10.0 | 0.00 | 0.06 | 0.06 | 47 | 1009.9 |